TimeEST,TemperatureF,Dew PointF,Humidity,Sea Level PressureIn,VisibilityMPH,Wind Direction,Wind SpeedMPH,Gust SpeedMPH,PrecipitationIn,Events,Conditions,WindDirDegrees,DateUTC
12:53 AM,64.9,57.9,78,30.04,10.0,Calm,Calm,-,N/A,,Partly Cloudy,0,2013-01-02 05:53:00
1:53 AM,63.0,57.9,84,30.04,10.0,WSW,3.5,-,N/A,,Clear,240,2013-01-02 06:53:00
2:53 AM,63.0,57.9,84,30.04,10.0,Calm,Calm,-,N/A,,Clear,0,2013-01-02 07:53:00
3:53 AM,62.1,57.9,86,30.04,10.0,Calm,Calm,-,N/A,,Partly Cloudy,0,2013-01-02 08:53:00
4:53 AM,62.1,57.0,84,30.04,10.0,Calm,Calm,-,N/A,,Scattered Clouds,0,2013-01-02 09:53:00
5:53 AM,60.1,55.9,86,30.05,10.0,Calm,Calm,-,N/A,,Partly Cloudy,0,2013-01-02 10:53:00
6:53 AM,59.0,57.0,93,30.06,10.0,Calm,Calm,-,N/A,,Scattered Clouds,0,2013-01-02 11:53:00
7:53 AM,63.0,60.1,90,30.07,10.0,Calm,Calm,-,N/A,,Mostly Cloudy,0,2013-01-02 12:53:00
8:53 AM,70.0,63.0,78,30.09,10.0,Calm,Calm,-,N/A,,Scattered Clouds,0,2013-01-02 13:53:00
9:53 AM,75.0,63.0,66,30.09,10.0,SW,5.8,-,N/A,,Partly Cloudy,220,2013-01-02 14:53:00
10:53 AM,77.0,61.0,58,30.08,10.0,Calm,Calm,-,N/A,,Mostly Cloudy,0,2013-01-02 15:53:00
11:53 AM,79.0,62.1,56,30.06,10.0,SW,8.1,-,N/A,,Mostly Cloudy,220,2013-01-02 16:53:00
12:53 PM,79.0,60.1,52,30.03,10.0,WSW,8.1,-,N/A,,Mostly Cloudy,250,2013-01-02 17:53:00
1:53 PM,81.0,60.1,49,30.00,10.0,SSW,12.7,17.3,N/A,,Mostly Cloudy,210,2013-01-02 18:53:00
2:53 PM,80.1,60.1,50,29.99,10.0,West,6.9,-,N/A,,Mostly Cloudy,280,2013-01-02 19:53:00
3:53 PM,80.1,60.1,50,29.99,10.0,West,5.8,-,N/A,,Scattered Clouds,270,2013-01-02 20:53:00
4:53 PM,77.0,64.9,66,30.00,10.0,ESE,9.2,-,N/A,,Scattered Clouds,120,2013-01-02 21:53:00
5:53 PM,75.0,66.0,73,30.01,10.0,SSE,6.9,-,N/A,,Scattered Clouds,160,2013-01-02 22:53:00
6:53 PM,73.9,66.0,76,30.03,10.0,South,6.9,-,N/A,,Scattered Clouds,170,2013-01-02 23:53:00
7:53 PM,73.0,66.0,79,30.05,10.0,South,3.5,-,N/A,,Scattered Clouds,170,2013-01-03 00:53:00
8:53 PM,72.0,66.0,81,30.05,10.0,South,4.6,-,N/A,,Scattered Clouds,170,2013-01-03 01:53:00
9:53 PM,72.0,66.0,81,30.06,10.0,South,3.5,-,N/A,,Scattered Clouds,170,2013-01-03 02:53:00
10:53 PM,72.0,66.0,81,30.06,10.0,Calm,Calm,-,N/A,,Mostly Cloudy,0,2013-01-03 03:53:00
11:53 PM,71.1,66.0,84,30.06,10.0,West,5.8,-,0.00,,Mostly Cloudy,270,2013-01-03 04:53:00